Location: Griffin Ranch
(33.6186°N, 110.6622°W)
Time: 12:30:07
(UTC-07:00)

Daily predictions for brighter satellites

Satellite Brightness Start Highest point End
(mag) Time Altitude Azimuth Time Altitude Azimuth Time Altitude Azimuth
Meteor 1-13 Rocket 4.4 19:42:10 10° S 19:47:52 57° E 19:53:30 10° NNE
Cosmos 1743 3.9 19:53:37 10° NNE 19:56:48 24° ENE 19:59:58 10° SE
PSLV R/B 4.3 20:00:35 10° SSW 20:03:37 27° SE 20:06:40 10° E
CZ-4 DEB 2.7 20:03:31 10° SSE 20:06:44 77° ENE 20:09:58 10° N
CZ-2C R/B 1.6 20:06:03 13° SE 20:07:40 27° ENE 20:09:43 10° NNE
Cosmos 1606 Rocket 4.1 20:04:15 10° N 20:08:28 42° E 20:12:38 10° SSE
Tiangong 1 3.5 20:06:39 10° W 20:08:35 15° SW 20:10:31 10° S
H-2A R/B 2.8 20:08:27 11° SE 20:12:04 34° ENE 20:15:58 10° N
Meteor 1-19 Rocket 4.2 20:06:35 10° S 20:12:09 63° E 20:17:41 10° NNE
Milstar 3 Cent rocket 3.0 20:07:24 10° W 20:15:38 49° SSW 20:19:50 15° ESE
Delta 168 4.4 20:14:29 10° SSW 20:17:16 19° SSE 20:19:14 15° SE
Meteor 2-4 Rocket 4.0 20:11:53 10° SSE 20:17:27 51° E 20:23:09 10° NNE
Resurs 01 Rocket 4.3 20:14:36 10° SW 20:17:35 18° W 20:20:34 10° NW
SPOT 5 4.1 20:17:32 14° ESE 20:20:04 21° ENE 20:23:21 10° NNE
Cosmos 2333 Rocket 3.7 20:16:20 10° SW 20:21:37 41° WNW 20:26:58 10° N
H-2A R/B 3.2 20:21:01 10° S 20:24:55 65° W 20:28:51 10° NNW
USA 186 2.7 20:23:45 10° S 20:26:39 42° W 20:29:25 10° NNW
Cosmos 2297 4.1 20:24:00 10° N 20:29:33 50° ENE 20:33:34 18° SE
ATLAS CENTAUR R/B 3.4 20:27:08 10° SW 20:31:44 39° NW 20:36:28 10° NNE
Cosmos 2098 Rocket 3.7 20:29:52 10° NNW 20:33:09 46° W 20:37:10 10° SSW
SeaSat 1 3.2 20:32:58 19° ESE 20:35:58 37° ENE 20:40:29 10° N
Cosmos 1844 Rocket 4.3 20:32:12 10° NW 20:37:06 31° WSW 20:41:58 10° SSW
BREEZE-M DEB (TANK) 4.2 20:33:40 10° NW 20:38:11 73° SW 20:51:07 18° SE
Hubble Space Telescope 2.8 20:36:48 10° WSW 20:39:10 15° SSW 20:40:39 13° S
Cosmos 1025 Rocket 4.2 20:36:24 10° SSW 20:40:37 45° W 20:44:51 10° N
Cosmos 1892 Rocket 3.9 20:36:29 10° SSW 20:40:52 70° W 20:45:19 10° N
CZ-4B R/B 4.2 20:37:21 10° NE 20:41:55 33° E 20:44:18 22° SE
Cosmos 2251 Rocket 4.4 20:37:37 10° SSW 20:42:46 54° WNW 20:48:00 10° N
Cosmos 2228 3.6 20:38:42 10° N 20:42:53 42° E 20:44:51 26° SE
OTV 4 1.6 20:43:49 10° W 20:46:30 30° SSW 20:47:03 28° S
YAOGAN 6 4.3 20:47:30 18° ENE 20:47:52 18° ENE 20:50:28 10° NNE
ALOS 3.9 20:47:10 10° SSW 20:51:20 32° W 20:55:32 10° NNW
IUS-17 SRM-1 4.1 20:50:26 10° WSW 20:53:43 48° S 21:00:44 19° ESE
Tsikada Rocket 4.2 20:51:53 18° SSE 20:56:34 54° E 21:02:46 10° NNE
Atlas Centaur 2 3.2 20:49:19 10° SW 20:56:42 48° SSE 21:03:19 16° E
Cosmos 1939 Rocket 2.9 20:55:28 26° SSE 20:57:43 90° SW 21:01:54 10° NNW
COSMOS 2455 3.3 20:56:15 21° SSE 20:59:43 39° ESE 21:05:15 10° NE
Envisat 2.9 20:57:00 27° SSE 20:59:50 72° ENE 21:04:54 10° N
MetOp-A 4.5 20:58:43 29° SE 21:01:03 48° ENE 21:06:12 10° N
ERS-1 Rocket 3.6 20:56:52 12° S 21:01:17 53° W 21:06:12 10° NNW
PSLV R/B 3.0 21:02:46 63° ESE 21:02:58 66° ENE 21:06:02 10° N
Cosmos 1513 Rocket 4.4 20:57:41 10° N 21:04:00 74° E 21:07:42 26° SSE
Cosmos 1110 Rocket 4.3 21:00:33 10° NNW 21:05:48 67° WSW 21:08:59 24° S
ATLAS 3B R/B 3.7 21:05:14 26° ESE 21:06:05 27° ESE 21:12:12 10° NE
Meteor 1-15 Rocket 4.1 21:00:31 10° N 21:06:07 82° E 21:09:17 27° SSE
Cosmos 2285 Rocket 4.0 21:04:36 10° NNW 21:10:57 87° WSW 21:14:32 28° SSE
Cosmos 2278 Rocket 3.7 21:06:48 10° NW 21:11:46 32° WSW 21:16:32 11° SSW
USA 234 3.6 21:15:11 29° ESE 21:18:36 58° NE 21:25:00 10° NW
Cosmos 2058 Rocket 4.2 21:15:17 10° NNW 21:19:23 41° W 21:22:04 19° SSW
Aureole 2 Rocket 4.0 21:17:31 10° SW 21:21:23 40° WNW 21:24:58 10° N
Abrixas rocket 3.8 21:18:33 10° NNW 21:21:35 28° NNE 21:21:51 28° NE
Gbstr 26 Del rocket 4.5 21:15:38 10° NW 21:23:15 82° SW 21:27:05 35° SE
Cosmos 1666 3.2 21:19:28 10° NNW 21:23:18 58° W 21:24:19 42° SSW
Cosmos 1602 Rocket 3.9 21:22:08 25° SSW 21:24:38 65° W 21:29:05 10° N
Cosmos 1464 Rocket 4.5 21:19:32 10° NNW 21:25:31 57° W 21:29:56 19° SSW
OAO 3 Copernicus 4.2 21:21:02 10° W 21:26:06 85° NNE 21:27:35 47° E
Cosmos 2369 Rocket 3.8 21:22:55 10° NNE 21:26:51 19° ENE 21:28:01 18° ENE
SL-16 R/B 4.1 21:22:04 10° WSW 21:26:56 29° WNW 21:31:50 10° N
Cosmos 1825 Rocket 4.3 21:31:07 37° ENE 21:31:07 37° ENE 21:34:36 10° NNE
ARGOS 3.4 21:29:43 45° ESE 21:30:48 52° ENE 21:36:03 10° N
H-2A R/B 3.4 21:31:07 23° ENE 21:31:14 23° ENE 21:35:03 10° NNE
NOAA 11 4.4 21:33:57 46° ESE 21:34:52 51° ENE 21:40:06 10° N
USA 245 4.3 21:35:19 45° SSE 21:37:23 80° ENE 21:43:05 10° N
Cosmos 1816 Rocket 4.5 21:34:43 31° S 21:38:03 89° W 21:44:26 10° N
Cosmos 1812 Rocket 3.4 21:34:48 10° N 21:39:12 87° E 21:39:24 81° SSE
SPOT 1/Viking Rocket 3.4 21:38:24 59° SSE 21:39:24 81° ENE 21:44:34 10° N
Cosmos 1461 3.2 21:36:14 10° NNW 21:40:09 56° NE 21:40:09 56° NE
PSLV R/B 4.2 21:37:38 10° W 21:40:53 51° NW 21:40:53 51° NW
Cosmos 1634 Rocket 4.1 21:40:04 10° N 21:46:05 53° E 21:46:54 49° ESE
Timation 1 Rocket 4.3 21:40:59 10° NNW 21:47:01 83° WSW 21:48:25 55° S
Cosmos 1515 4.2 21:48:48 58° N 21:48:48 58° N 21:52:00 10° N
Cosmos 1066 Rocket 4.1 21:53:02 67° SE 21:53:38 73° E 21:59:22 10° NNE
Cosmos 1190 Rocket 4.3 21:54:39 52° ENE 21:54:39 52° ENE 21:59:10 10° NNE
CZ-4 R/B 4.3 21:51:19 10° N 21:56:14 63° WNW 21:57:41 43° SW
SPOT 5 4.2 21:56:47 24° SW 21:57:59 27° W 22:01:44 10° NW
Geosat 4.3 21:53:00 10° NNE 21:57:59 65° WNW 22:00:05 34° SW
Cosmos 489 Rocket 4.5 22:05:08 60° ESE 22:05:08 60° ESE 22:11:22 10° NNE
Cosmos 2279 Rocket 4.3 22:06:56 10° N 22:12:54 50° ENE 22:12:54 50° ENE
SeaSat 1 4.1 22:12:45 22° WSW 22:13:30 23° WSW 22:17:25 10° NW
Landsat 7 4.0 22:14:36 66° N 22:14:36 66° N 22:18:43 10° NNW
Cosmos 1953 Rocket 4.3 22:15:37 49° N 22:15:37 49° N 22:18:53 10° N
Cosmos 1943 3.4 22:21:12 62° WSW 22:21:55 69° WNW 22:27:36 10° NNE
Terra 2.5 22:30:52 53° N 22:30:52 53° N 22:34:31 10° NNW
Cosmos 1943 Rocket 3.5 22:38:22 10° N 22:42:31 30° NE 22:42:31 30° NE
Cosmos 407 Rocket 4.1 22:45:24 54° NW 22:45:24 54° NW 22:49:59 10° N
Atlas Centaur 2 3.0 22:38:07 10° WSW 22:46:01 69° SSW 22:46:01 69° SSW
ATLAS 3B R/B 3.4 22:52:19 29° SW 22:56:23 58° WNW 23:03:52 10° NNE
Lacrosse 4 Rocket 3.8 23:03:16 21° N 23:03:16 21° N 23:04:53 10° N
USA 234 4.3 23:02:32 32° WSW 23:02:32 32° WSW 23:07:29 10° WNW
H-2A R/B 3.6 23:11:45 28° WNW 23:11:45 28° WNW 23:14:52 10° NW
Cosmos 2369 Rocket 3.1 23:05:42 10° NNW 23:09:48 42° WNW 23:09:48 42° WNW
Cosmos 1092 Rocket 4.4 23:12:49 56° NNE 23:12:49 56° NNE 23:17:49 10° N
COSMOS 2406 4.2 23:26:15 43° NNE 23:26:15 43° NNE 23:30:03 10° NNE
Nadezhda 4 Rocket 4.4 23:26:47 58° NW 23:26:47 58° NW 23:32:16 10° N
USA 238 DEB 3.8 23:26:50 73° N 23:26:50 73° N 23:33:14 10° NNE
USA 238 3.8 23:26:58 73° N 23:26:58 73° N 23:33:20 10° NNE
